Theta_e
301 303 304 303 301 301 302 301 300 297 293 289 288 288 287 287 287 287 287 286 286 285 285 284 284 284 283 283 283 282 281 280 280 280 280 280 280 280 280 279 279 279 279
301 301 304 303 300 299 298 298 298 295 291 289 288 287 287 286 286 286 286 286 286 285 285 284 284 284 284 283 283 282 281 280 279 278 279 279 279 279 279 279 279 279 277
300 300 300 300 298 297 297 297 296 293 289 287 287 286 286 286 286 286 286 286 285 285 285 285 285 284 284 283 283 282 281 280 279 277 277 278 278 279 279 279 278 278 276
299 298 297 297 297 297 297 297 296 293 289 287 286 286 286 285 285 285 285 285 285 285 285 285 285 285 284 283 283 282 281 280 279 277 276 277 277 278 278 278 278 277 276
297 296 295 295 295 293 294 294 292 289 288 287 286 285 285 285 285 285 284 284 285 284 285 284 284 284 283 283 283 282 281 279 278 277 277 277 277 277 277 277 276 276 276
294 294 293 293 293 292 291 291 290 287 286 285 285 285 284 284 284 284 285 284 283 286 284 286 283 283 283 283 283 282 281 280 279 278 278 278 278 277 277 277 276 276 276
293 293 293 292 291 290 290 288 286 285 284 284 284 284 284 284 284 284 284 284 285 285 285 286 283 283 283 282 281 281 281 281 281 281 280 279 278 278 277 276 276 276 275
291 291 291 291 289 289 288 287 285 284 283 283 283 284 284 284 284 284 284 284 290 283 287 287 283 283 282 282 281 280 280 279 279 279 279 278 277 277 278 278 276 275 274
289 289 289 289 287 286 285 284 283 283 282 282 283 283 283 283 283 283 283 291 288 283 289 285 284 282 282 281 280 280 280 280 279 279 278 278 279 280 280 277 276 274 274
288 288 288 288 287 286 285 284 283 283 282 282 282 283 283 283 282 283 289 291 285 285 288 286 285 281 281 281 280 280 280 280 279 279 279 278 278 278 278 277 276 274 271
288 288 288 287 287 287 285 283 283 282 282 282 283 283 284 283 283 284 289 290 287 284 285 286 285 282 282 281 281 281 280 280 279 279 279 279 278 277 277 276 275 273 270
288 287 287 286 286 285 285 283 283 283 282 282 283 282 282 282 285 289 290 289 286 283 285 286 283 282 282 281 281 280 280 281 280 280 279 277 277 276 275 275 273 272 269
287 286 286 285 285 285 284 283 283 284 286 283 283 283 282 284 290 290 286 286 286 285 285 283 282 282 281 280 281 281 280 280 279 278 276 275 274 274 272 272 271 270 268
286 285 285 285 285 285 285 285 285 286 285 285 283 283 284 288 289 288 285 285 285 284 284 283 282 281 280 279 279 278 278 277 276 275 273 272 271 271 269 269 268 267 265
286 285 285 285 285 285 285 286 287 287 286 285 284 285 286 286 288 289 287 285 284 281 281 281 280 279 278 277 276 275 274 274 272 271 270 270 269 268 268 266 265 264 263
286 285 286 286 286 285 285 284 285 285 286 286 286 287 286 286 287 284 283 282 281 279 278 278 278 276 275 275 274 273 272 270 268 267 267 267 267 266 266 265 263 263 262
287 286 285 285 285 284 284 284 282 282 282 282 282 282 282 282 281 282 280 279 279 278 276 276 276 275 274 273 272 270 268 267 266 266 265 265 264 264 263 263 262 262 262
287 287 286 286 285 284 284 283 282 280 280 280 279 280 280 279 279 279 280 278 277 278 277 276 274 274 273 271 268 267 266 266 265 265 264 264 264 263 263 262 262 261 260
285 284 284 283 283 283 282 281 281 280 279 279 279 279 279 279 279 278 276 277 276 276 275 274 273 271 269 267 266 266 265 265 264 264 264 263 263 262 262 262 261 261 260
283 283 283 283 282 281 281 280 279 279 278 277 277 277 277 276 276 275 275 274 274 274 273 271 269 268 267 266 265 264 264 264 263 263 262 262 262 261 261 261 261 259 259
281 280 280 280 280 279 280 279 278 278 277 276 275 275 274 274 273 272 272 271 270 269 268 267 266 266 265 264 263 263 263 263 262 262 262 261 261 261 261 260 260 259 259
279 278 278 278 277 276 276 276 275 275 275 274 272 272 271 271 270 269 268 268 267 266 266 266 265 264 264 263 263 263 263 262 262 262 261 261 261 261 260 260 259 259 259
277 277 276 275 275 275 274 273 273 272 272 271 270 269 269 269 267 267 266 265 265 265 264 264 264 263 263 263 263 262 262 262 262 261 261 261 261 260 260 259 259 259 258
274 274 274 273 272 272 272 271 270 270 269 269 268 267 267 266 265 265 264 264 264 263 263 263 263 263 263 263 262 262 261 261 260 260 260 260 260 259 259 258 258 258 258
270 270 270 270 269 269 269 268 268 267 267 266 266 265 265 264 264 264 264 263 263 263 263 262 262 262 262 262 261 261 261 261 261 260 260 260 259 259 258 258 258 258 257
266 266 266 266 266 265 265 265 265 264 264 264 264 264 263 263 263 263 263 262 262 262 262 262 262 262 262 262 262 261 261 261 261 261 260 260 259 259 259 259 259 259 258
Wind_Speed
37 39 39 39 37 36 37 39 40 40 40 43 42 40 38 35 33 30 28 27 24 22 20 16 14 12 10 8 6 5 5 7 6 7 13 15 18 17 19 21 24 23 24
38 38 40 40 40 38 37 38 39 40 42 44 43 41 39 37 34 32 30 27 25 23 21 18 15 14 12 10 9 8 8 8 8 10 15 15 18 18 21 24 24 25 23
39 39 40 41 41 40 39 38 39 41 44 45 43 42 40 37 35 32 29 28 25 23 21 18 17 16 14 13 11 10 10 11 13 14 12 17 18 20 21 23 24 23 19
39 40 40 42 43 42 41 40 40 43 46 47 45 43 41 38 35 32 30 27 25 22 19 18 17 16 15 14 13 13 13 14 16 17 16 16 16 18 19 22 27 19 22
39 40 42 42 42 40 40 39 40 43 47 48 47 44 41 38 36 34 30 28 25 22 19 18 19 17 15 15 15 15 16 17 18 17 16 14 15 12 12 15 21 29 24
38 39 37 40 41 40 38 39 40 44 47 48 47 45 42 38 35 32 30 28 25 17 22 19 20 19 19 18 17 18 19 20 21 19 17 17 19 16 17 16 19 20 14
35 35 39 39 39 39 40 39 40 44 47 48 47 45 41 38 35 32 29 25 18 23 18 23 22 22 21 20 19 17 18 19 21 21 25 24 21 18 19 21 19 20 21
32 34 37 39 38 39 39 40 40 42 45 45 46 44 40 38 34 32 29 24 18 25 20 25 26 26 23 22 21 22 24 24 25 25 29 31 29 26 22 26 19 21 28
29 31 34 36 34 35 34 35 35 37 38 40 43 41 40 36 33 31 27 20 23 24 26 27 30 29 26 24 22 24 25 28 26 25 24 22 22 22 20 14 20 20 22
25 27 29 32 33 34 33 33 33 33 32 35 38 38 37 35 32 30 23 24 27 28 32 32 33 31 26 24 23 25 27 30 26 24 24 22 19 22 24 25 28 21 12
23 24 26 29 32 32 32 30 32 31 32 32 32 33 32 33 32 29 24 30 34 32 35 35 34 30 26 23 20 23 26 25 25 23 25 25 21 21 21 23 26 23 16
20 23 25 27 27 28 29 28 29 30 28 28 27 27 29 29 29 29 34 33 34 32 33 35 32 27 23 22 19 21 20 21 22 22 20 19 23 26 26 25 24 24 20
21 23 24 25 25 28 29 28 26 28 26 25 25 26 33 33 32 37 37 30 32 29 32 29 24 21 19 18 18 17 16 18 19 19 21 26 26 26 23 22 22 21 22
23 24 25 26 26 26 26 29 29 27 25 26 28 28 27 33 36 38 37 35 29 26 26 20 18 17 17 16 16 15 17 19 20 18 16 16 21 22 20 18 17 16 16
21 22 22 22 23 23 23 26 26 26 28 26 25 25 24 30 37 35 32 33 31 28 27 25 21 19 18 18 17 14 12 11 13 15 17 17 16 16 15 12 12 13 11
21 21 22 23 23 24 24 19 19 19 20 19 22 25 27 28 25 22 23 23 22 24 22 24 21 18 15 13 11 10 12 12 13 13 14 14 12 13 13 10 10 11 12
20 21 22 22 23 24 23 21 16 10 9 12 13 15 18 18 15 15 15 13 13 16 17 17 17 15 13 11 11 11 11 11 11 10 11 11 9 9 10 10 11 12 14
16 18 19 19 20 21 22 21 19 20 16 13 7 9 10 12 11 13 15 20 17 20 19 17 15 14 14 12 11 10 9 9 9 9 9 9 10 11 12 13 13 13 13
14 14 14 15 15 16 18 18 18 18 19 19 17 14 12 13 13 18 21 20 17 17 14 13 13 13 12 11 10 9 8 8 8 8 8 9 9 10 12 13 13 13 12
13 12 12 12 14 14 16 18 18 18 21 21 20 21 21 21 19 18 17 15 14 13 13 12 12 12 11 10 8 8 8 9 10 11 11 10 9 10 12 13 13 12 11
13 12 10 11 11 11 13 15 17 19 21 21 20 18 19 20 16 13 12 11 11 11 11 10 10 10 10 9 9 9 10 11 11 12 11 11 11 12 12 12 12 13 14
12 13 11 10 10 9 9 9 11 12 14 16 16 13 11 14 13 13 12 11 10 10 10 10 10 11 10 10 10 11 12 12 12 12 12 12 13 13 13 13 12 13 15
11 11 11 10 9 9 8 8 9 9 11 13 14 15 14 11 11 10 10 10 10 10 10 11 11 11 11 12 12 13 14 14 12 13 14 14 14 14 14 15 14 14 16
9 9 10 10 9 9 8 8 8 8 9 11 12 12 13 12 11 11 10 10 11 11 13 13 13 13 13 14 15 15 16 15 15 16 15 16 17 16 17 17 17 16 16
9 8 7 7 5 5 5 6 7 8 9 10 10 11 11 11 12 12 12 12 13 14 15 15 16 16 16 16 16 16 17 16 16 16 17 17 17 17 18 18 17 16 16
8 7 6 4 2 1 2 4 5 7 8 8 9 11 12 13 13 13 14 15 16 16 16 17 17 17 17 18 17 16 16 16 15 15 16 16 17 17 16 17 16 16 16
Wind_Direction
201 203 210 212 212 213 212 210 208 205 197 190 187 184 182 180 179 177 173 168 167 162 161 162 160 163 167 167 167 180 188 196 213 271 278 294 302 312 320 325 331 329 331
205 205 210 212 211 212 212 211 209 204 197 193 189 186 184 183 181 181 177 174 173 171 171 171 174 178 184 189 196 205 220 229 232 260 282 294 299 312 320 323 326 329 323
206 205 206 210 210 212 211 211 208 202 197 195 192 190 188 187 185 184 183 180 180 179 181 181 188 192 198 202 208 219 235 244 247 251 273 288 297 310 315 319 325 324 311
207 205 205 206 210 211 211 209 207 203 200 196 195 194 192 190 189 187 187 186 184 187 187 197 204 209 212 213 220 232 242 247 252 257 268 280 290 301 310 323 320 312 315
205 205 207 209 210 209 210 209 205 202 201 198 195 197 196 194 192 190 190 190 192 191 200 210 218 220 226 231 235 241 244 248 253 256 266 275 281 286 307 313 303 312 316
203 205 205 208 207 209 207 206 205 202 199 198 198 197 196 196 197 196 196 194 197 205 209 233 225 231 237 243 251 252 252 250 254 255 267 267 276 284 302 297 296 302 312
204 203 205 205 203 204 207 205 201 198 198 198 199 198 197 198 199 199 200 199 203 221 219 243 236 239 243 245 250 247 242 246 257 271 273 267 278 289 295 288 279 280 281
201 201 202 202 200 202 201 201 198 194 194 194 198 199 198 199 200 201 200 199 215 226 232 248 247 248 249 252 254 255 258 258 258 260 262 272 281 289 288 282 274 278 290
200 200 199 198 192 193 192 191 190 188 188 192 198 197 199 198 199 201 197 214 220 226 245 246 253 252 252 255 259 262 269 273 274 273 273 276 280 281 284 268 268 284 298
198 199 199 196 194 192 192 189 188 189 186 190 197 200 200 200 200 199 208 230 223 235 246 244 252 253 253 254 255 263 271 277 283 290 289 285 280 276 274 267 272 270 275
197 199 198 198 198 199 192 184 185 180 189 194 197 200 205 206 204 204 228 232 227 234 244 254 254 252 255 259 255 265 271 285 289 289 291 291 284 281 281 275 266 265 261
190 186 186 190 188 186 185 182 182 184 181 186 195 202 206 206 207 224 234 233 233 234 247 258 260 260 259 258 252 257 266 274 276 279 283 285 294 298 299 291 279 275 265
170 170 172 176 180 181 175 169 165 175 182 185 194 203 206 208 225 236 227 238 235 239 250 257 261 259 259 253 254 260 265 268 276 285 293 295 298 303 301 295 291 283 275
160 161 165 167 168 174 177 177 174 182 187 192 195 201 206 221 230 233 230 237 246 235 241 245 244 245 243 246 249 245 254 265 278 284 291 295 298 302 302 296 289 286 284
150 153 153 161 165 167 178 186 196 207 200 190 200 207 213 229 241 239 238 240 240 228 231 235 231 232 240 250 253 258 264 272 282 288 293 297 302 303 300 291 288 288 289
151 154 158 159 165 172 176 174 193 204 209 215 228 238 240 246 251 250 242 234 227 222 223 229 235 238 235 238 241 257 276 285 286 290 292 294 296 298 301 290 293 296 298
165 168 171 173 177 179 182 186 168 172 193 219 228 227 228 233 224 215 201 199 206 195 217 217 219 221 224 237 258 274 283 290 294 293 291 296 297 296 297 295 300 300 297
161 167 169 174 177 180 184 185 179 161 157 156 155 183 194 178 171 172 175 182 184 196 209 205 207 221 238 253 261 270 280 287 291 294 298 301 300 296 296 296 296 297 302
142 150 159 166 174 180 183 183 183 180 176 167 162 169 159 164 163 174 181 198 200 203 208 217 232 242 248 252 262 270 276 277 279 285 291 296 296 292 292 295 299 303 303
125 134 146 158 164 170 179 183 183 183 179 176 177 169 166 171 183 196 206 211 216 226 233 235 238 244 249 254 257 266 270 272 277 280 284 287 286 284 289 296 299 301 300
118 123 132 140 150 163 174 183 190 189 189 190 188 189 190 196 201 210 218 222 228 230 230 233 237 239 244 246 253 262 270 274 276 279 281 283 282 283 288 290 293 293 292
113 117 122 127 133 142 155 171 184 191 195 194 193 188 200 218 216 219 221 225 230 232 232 232 237 242 246 251 257 260 264 269 274 277 278 279 281 282 285 285 288 289 290
108 111 117 122 128 135 145 155 167 175 179 183 187 190 200 211 212 219 228 234 236 239 240 243 246 252 256 258 259 262 266 271 278 274 277 280 279 279 278 279 284 286 288
103 111 119 127 136 140 146 156 165 174 184 194 203 210 219 227 235 241 244 246 250 251 254 255 257 258 258 261 262 262 265 271 273 274 275 276 277 277 276 277 280 283 284
90 101 113 122 131 145 164 182 197 207 215 219 223 227 233 238 244 249 252 254 256 257 259 262 263 265 265 265 263 264 266 267 269 270 271 271 272 273 274 276 278 281 279
83 85 88 92 103 173 217 231 232 236 243 248 250 251 253 255 258 259 261 263 264 265 264 263 265 266 265 265 266 265 265 266 266 268 269 269 269 269 270 273 274 275 275